Lapse_Rate
9.1 9.0 9.2 9.1 8.9 8.9 8.3 8.3 8.2 7.6 7.7 7.5 7.8 8.0 8.4 8.3 7.7 7.0 6.6 6.4 5.8 7.5 8.0 6.0 6.0 6.7 6.5 5.7 5.7 5.5 6.5 6.5 6.5 6.5 6.5 6.3 6.4 5.7 5.5 5.6 4.8 3.2 4.1 3.6 3.0
9.0 9.1 8.3 9.0 8.5 8.2 8.2 7.9 7.5 7.5 7.6 7.9 7.3 7.1 7.2 7.4 6.9 6.8 7.9 7.8 7.5 7.9 7.0 5.9 5.0 6.2 6.4 5.7 5.4 6.4 6.5 6.5 6.4 6.5 6.5 6.3 6.4 6.0 5.8 5.8 5.0 3.7 3.1 3.4 3.1
9.0 9.0 8.3 8.8 8.1 8.0 7.6 7.6 7.5 7.7 8.0 8.1 7.3 7.1 7.2 7.2 7.2 7.3 7.5 7.9 8.1 8.2 7.0 6.8 5.1 6.2 6.4 5.2 5.7 6.2 6.5 6.5 6.5 6.7 5.8 6.6 6.7 6.7 6.1 6.5 5.9 4.9 3.7 3.4 2.9
9.2 9.2 9.3 8.9 7.9 7.7 7.8 7.8 7.9 7.9 8.1 8.0 7.5 6.9 6.9 7.3 6.5 7.8 8.5 8.3 7.9 8.2 7.2 7.4 5.8 5.7 6.3 6.5 5.4 6.5 6.5 6.6 6.3 5.5 5.7 6.5 6.7 6.7 6.5 6.2 5.3 4.5 5.0 2.3 1.8
8.5 8.7 8.8 7.5 7.6 7.7 7.8 8.1 8.2 8.0 8.0 7.9 7.5 7.3 7.8 7.1 6.4 7.3 9.0 9.0 8.5 8.3 7.3 7.1 6.0 5.8 6.5 6.6 6.3 6.5 6.5 6.3 5.6 5.7 6.0 6.7 6.6 6.7 6.4 5.6 5.5 5.3 3.6 1.6 1.6
8.5 8.6 8.6 7.6 7.3 7.6 7.9 8.0 8.1 7.9 7.9 8.0 8.0 7.6 7.8 6.6 7.4 7.1 6.9 6.5 7.1 7.9 7.2 7.5 6.2 6.5 6.0 5.9 6.5 5.7 6.2 6.1 6.4 6.5 6.5 6.6 6.7 6.8 6.8 6.1 4.9 5.6 3.6 2.9 2.4
8.0 8.1 8.3 7.5 7.5 7.2 7.6 7.9 7.9 8.0 8.1 8.5 8.4 7.7 7.5 6.7 7.5 6.9 5.5 4.6 6.7 7.8 7.8 7.4 6.8 6.1 5.2 6.5 4.9 5.3 6.5 6.5 6.3 6.5 6.6 6.5 6.5 6.5 5.8 6.0 5.5 4.2 4.6 3.0 2.7
7.8 7.7 7.9 7.2 7.3 7.2 7.2 7.5 7.4 7.7 8.1 8.1 8.1 7.5 6.6 8.1 7.6 7.1 6.5 6.6 6.0 8.0 6.5 7.6 6.7 5.3 6.0 6.0 5.5 6.5 6.5 6.5 6.5 6.5 6.5 6.6 6.5 6.5 6.6 6.3 4.9 4.6 3.7 4.1 4.1
8.9 7.7 8.0 7.6 7.1 7.1 7.0 7.4 7.4 7.4 7.8 8.2 6.7 7.0 6.0 9.0 7.7 7.3 7.7 7.2 6.7 6.8 6.7 8.0 6.0 5.9 6.1 6.5 6.5 6.5 6.5 6.5 6.5 6.5 6.5 6.5 6.5 6.5 6.0 6.1 5.3 5.5 4.0 2.9 2.9
7.9 7.9 6.9 6.1 7.5 7.2 7.1 7.4 7.1 6.8 6.9 7.6 7.4 6.6 6.7 7.2 7.5 7.6 7.4 7.0 7.1 6.3 7.0 7.0 6.4 6.5 6.5 6.5 6.5 6.5 6.5 6.5 6.5 6.5 6.5 6.5 6.5 6.5 6.6 6.4 5.2 5.3 4.7 2.7 2.7
7.8 7.5 5.9 5.7 6.7 7.1 5.6 5.1 5.7 5.8 6.1 6.3 6.7 6.6 6.8 6.7 6.9 7.1 7.6 6.4 6.4 6.8 6.5 6.6 6.5 6.5 6.5 6.5 6.5 6.5 6.5 6.5 6.5 6.5 6.5 6.5 6.5 6.5 5.7 5.1 5.0 3.5 2.0 2.3 2.1
8.0 7.0 6.5 5.8 6.1 6.6 4.3 4.9 5.8 5.8 6.0 6.6 6.9 6.9 6.7 7.1 6.7 7.1 7.8 7.1 6.9 6.5 6.5 6.5 6.5 6.5 6.5 6.5 6.5 6.5 6.5 6.5 6.5 6.5 6.5 6.5 6.5 6.5 6.2 6.0 4.3 4.0 2.2 1.8 3.0
7.8 7.6 6.6 5.8 5.7 4.7 4.8 5.5 5.8 6.5 6.6 6.5 6.7 6.0 6.0 6.8 6.7 6.9 7.3 6.7 6.5 6.5 6.5 6.5 6.5 6.5 6.5 6.5 6.5 6.5 6.5 6.5 6.5 6.5 6.5 6.5 6.5 6.5 6.4 5.3 5.5 3.5 2.7 2.6 2.4
7.7 7.5 5.6 5.7 5.2 4.6 5.2 5.8 5.6 6.0 6.5 6.5 6.5 6.4 6.9 7.2 6.6 6.8 7.0 6.8 6.5 6.5 6.5 6.5 6.4 6.5 6.5 6.5 6.5 6.5 6.5 6.5 6.5 6.5 6.5 6.5 6.5 6.5 6.5 6.5 6.5 5.3 2.3 2.0 1.9
6.9 6.1 5.3 6.4 4.0 5.4 6.5 5.7 5.5 6.3 6.5 6.5 6.7 7.3 7.1 6.7 6.9 6.5 6.5 6.7 6.5 6.5 6.5 6.5 6.5 6.5 6.5 6.5 6.5 6.5 6.5 6.5 6.5 6.5 6.5 6.5 6.5 6.5 6.5 6.5 6.5 6.1 4.8 1.1 1.0
5.8 5.6 5.1 5.3 5.6 5.4 6.8 7.0 6.7 6.5 6.5 6.5 6.7 6.5 6.5 6.8 6.8 6.9 6.7 6.4 6.9 6.5 6.5 6.5 6.3 6.5 6.5 6.5 6.5 6.5 6.5 6.5 6.5 6.5 6.5 6.5 6.5 6.5 6.5 6.5 6.5 5.4 3.2 0.9 0.4
4.9 4.5 4.8 4.5 4.9 6.1 6.6 6.6 6.5 6.5 6.5 6.5 6.5 6.5 6.5 6.5 6.5 6.5 6.5 6.5 6.5 6.5 6.5 6.5 6.5 6.5 6.4 6.5 6.5 6.5 6.5 6.5 6.5 6.5 6.5 6.5 6.5 6.5 6.5 6.5 6.5 6.2 2.8 1.8 0.9
4.6 4.0 4.6 4.9 5.4 6.4 6.3 6.5 6.5 6.5 6.5 6.5 6.5 6.5 6.5 6.5 6.5 6.5 6.5 6.5 6.5 6.5 6.5 6.5 6.5 6.5 6.5 6.5 6.5 6.5 6.5 6.5 6.5 6.5 6.5 6.5 6.5 6.5 6.5 5.5 4.4 3.5 2.4 1.9 1.5
3.5 2.7 3.6 4.5 5.6 6.5 6.4 6.5 6.5 6.5 6.5 6.5 6.5 6.5 6.5 6.5 6.5 6.5 6.5 6.5 6.5 6.5 6.5 6.5 6.5 6.5 6.5 6.5 6.5 6.5 6.5 6.5 6.5 6.5 6.5 6.5 6.5 6.5 6.5 6.5 5.9 4.9 3.7 2.7 2.4
1.4 3.3 4.3 5.0 6.5 6.3 6.5 6.5 6.5 6.5 6.5 6.5 6.5 6.5 6.5 6.5 6.5 6.5 6.5 6.5 6.5 6.5 6.5 6.5 6.5 6.5 6.5 6.6 6.4 6.5 6.5 6.5 6.5 6.5 6.5 6.5 6.5 6.5 6.5 6.5 6.5 6.4 5.6 4.2 2.9
2.3 4.6 4.3 6.0 6.8 6.4 6.5 6.5 6.5 6.0 6.4 6.5 6.5 6.5 6.5 6.5 6.5 6.5 6.5 6.5 6.5 6.5 6.4 6.5 6.5 6.5 6.5 6.5 6.5 6.5 6.5 6.5 6.5 6.5 6.5 6.5 6.5 6.5 6.5 6.5 6.5 6.2 5.4 4.6 3.7
1.7 6.4 5.1 5.2 6.6 6.5 6.5 6.5 6.5 6.5 6.3 6.5 6.5 6.5 6.5 6.5 6.5 6.5 6.5 6.5 5.8 6.2 6.5 6.5 6.5 6.5 6.5 6.5 6.5 6.5 6.5 6.5 6.5 6.5 6.5 6.5 6.5 6.5 6.5 6.5 5.6 5.4 4.8 3.2 2.9
2.8 4.4 5.4 5.8 6.5 6.5 6.4 6.5 6.5 6.5 6.5 6.5 6.5 6.5 6.5 6.5 6.5 6.5 6.5 6.2 6.0 6.4 6.5 6.5 6.5 6.5 6.5 6.5 6.5 6.5 6.5 6.5 6.5 6.5 6.5 6.5 6.5 6.5 6.4 6.5 5.9 5.2 4.3 3.4 2.7
3.1 6.5 5.3 5.9 6.1 6.5 6.5 6.5 6.5 6.3 6.5 6.4 6.5 6.3 6.5 6.5 6.5 6.5 6.5 6.5 6.2 6.4 6.4 6.3 6.5 6.5 6.5 6.5 6.5 6.5 6.5 6.5 6.5 6.5 6.5 6.5 6.5 6.5 6.5 6.5 6.3 5.4 3.9 2.9 2.6
2.0 6.1 6.0 6.5 6.5 6.5 6.5 6.5 6.5 6.5 6.4 6.0 6.5 6.5 6.5 6.5 6.5 6.5 6.5 6.5 6.4 6.5 6.3 6.5 6.5 6.5 6.5 6.5 6.5 6.5 6.5 6.5 6.5 6.5 6.5 6.5 6.5 6.5 6.5 6.5 5.4 4.0 3.5 3.0 2.7
3.3 4.8 4.4 5.2 5.6 6.5 6.5 6.5 6.5 6.5 6.5 6.5 6.5 6.5 6.5 6.5 6.5 6.5 6.5 6.5 6.5 6.5 6.5 6.5 6.5 6.5 6.5 6.5 6.5 6.5 6.5 6.5 6.5 6.5 6.5 6.5 6.5 6.5 5.8 5.0 4.9 3.9 3.7 4.2 3.2
1.7 3.1 4.7 5.9 6.3 6.5 6.5 6.5 6.5 6.5 6.6 6.6 6.5 6.5 6.5 6.5 5.8 5.7 5.1 5.3 6.2 6.5 6.5 6.5 6.5 6.5 6.5 6.5 6.5 6.5 6.5 6.5 6.5 6.5 6.5 6.5 6.5 6.5 6.5 6.4 5.7 4.7 4.2 3.0 2.6
Wind_Speed
24 23 24 24 23 19 18 17 16 14 9 7 6 8 10 10 12 8 14 6 10 14 5 6 5 2 2 3 4 1 6 15 18 13 14 1 6 7 11 5 4 7 2 4 8
24 24 24 23 20 17 16 15 9 7 5 4 3 5 5 3 1 10 7 10 17 17 2 10 8 6 3 4 3 5 9 16 6 16 18 4 5 8 8 14 6 3 7 7 9
21 22 23 21 19 16 13 9 7 5 2 2 2 2 2 3 1 6 19 21 14 13 5 0 6 7 4 4 4 5 13 3 8 11 1 5 1 7 7 7 5 10 5 5 9
20 20 21 22 19 14 11 8 6 4 2 1 1 2 2 2 5 1 11 25 22 12 9 6 6 7 6 9 6 6 12 13 6 5 3 6 4 7 3 9 10 11 8 4 7
17 19 18 18 16 12 10 8 5 5 2 3 1 0 1 3 6 6 11 7 9 10 13 11 7 7 12 15 5 3 10 8 12 12 7 1 7 14 16 18 15 13 5 8 6
17 16 17 16 14 12 10 8 5 2 2 1 4 0 2 4 7 14 14 16 13 11 18 13 9 10 4 8 10 6 4 10 13 10 8 5 3 3 21 7 12 10 7 7 7
20 17 15 14 13 11 10 8 6 4 2 2 2 3 3 6 10 15 13 6 9 15 15 12 9 9 5 5 5 4 6 5 7 11 7 11 11 13 26 16 16 11 8 8 9
19 20 14 14 12 10 10 10 8 7 6 3 1 0 4 8 8 12 11 5 6 13 18 14 6 5 2 3 5 4 4 5 8 12 4 13 10 19 7 16 14 10 8 8 7
20 18 18 14 12 12 12 11 9 8 8 5 2 2 6 5 3 7 6 1 4 3 6 13 6 3 1 7 5 2 6 6 7 18 8 16 5 18 20 20 14 14 9 8 7
18 19 18 17 13 13 14 12 6 4 2 3 3 2 2 3 2 1 2 5 3 6 7 12 5 4 2 6 15 18 6 13 8 11 9 18 3 12 19 19 18 19 8 8 8
19 19 18 17 16 13 7 3 3 3 2 4 3 3 4 7 2 2 2 6 5 4 12 13 7 19 14 4 4 8 5 7 1 4 11 10 7 6 8 6 8 10 9 9 9
19 18 18 16 14 12 2 1 1 1 4 3 5 3 5 2 0 3 3 4 4 1 5 13 13 7 8 6 5 9 5 4 2 3 11 7 8 8 9 7 9 10 9 10 5
20 20 18 16 12 2 2 2 1 2 2 4 1 1 5 1 2 3 3 5 2 10 3 15 11 10 7 4 7 3 7 4 5 3 3 4 3 8 11 6 7 7 8 6 10
22 19 19 13 3 1 1 3 2 2 3 4 1 1 3 3 3 2 3 3 3 6 3 4 9 12 8 4 4 4 4 5 5 4 4 3 4 8 9 12 9 14 10 10 8
23 22 19 6 2 1 1 8 4 2 4 3 1 0 3 3 3 3 2 2 5 7 4 6 17 16 10 6 5 2 5 6 3 4 3 2 1 6 3 7 17 14 12 9 9
26 24 12 1 2 3 6 5 2 4 2 3 1 2 3 3 1 4 5 2 4 4 3 5 3 4 3 3 5 7 6 7 5 3 2 5 5 6 6 7 4 7 11 9 9
30 25 4 7 3 8 6 2 4 4 1 2 3 4 6 5 4 1 2 4 3 4 3 8 3 2 4 7 2 4 5 2 1 1 5 2 4 15 7 4 6 8 9 9 9
27 9 8 3 8 9 2 2 5 3 3 1 4 3 2 2 2 2 5 2 1 3 4 3 5 2 4 3 5 5 6 5 6 4 3 2 8 6 6 9 7 8 7 6 8
12 2 2 2 7 2 2 3 6 5 3 2 5 3 4 3 4 4 2 2 2 2 4 5 3 3 3 2 2 4 3 3 6 2 3 5 7 9 7 10 6 6 7 10 8
2 2 2 3 9 2 1 3 2 3 3 0 3 1 1 5 5 3 6 3 3 2 1 3 5 1 1 1 3 3 3 2 3 3 4 4 5 7 6 9 5 7 10 8 7
3 2 2 3 0 1 1 4 3 4 2 0 3 2 3 3 3 5 8 2 4 4 3 3 4 3 3 5 6 1 2 3 2 4 4 2 5 6 6 8 8 8 8 10 10
1 2 0 2 2 1 2 5 2 1 2 3 1 2 1 4 2 3 6 3 7 6 6 4 4 4 4 1 2 4 4 6 4 4 3 2 6 2 6 7 7 7 7 7 9
2 1 1 0 1 2 6 1 2 3 2 2 3 3 2 2 4 1 2 5 7 7 7 6 1 3 2 3 2 5 8 4 2 2 7 4 5 2 4 2 4 7 7 6 7
2 1 2 1 1 2 4 5 2 2 1 2 1 4 2 3 5 4 3 2 3 2 3 4 3 5 6 4 4 6 10 14 10 4 5 10 6 4 4 3 4 5 6 7 8
3 1 2 1 0 4 2 6 3 3 2 4 4 5 3 2 2 3 2 3 2 3 3 4 4 3 4 4 5 6 7 17 18 16 8 5 14 11 6 7 9 7 6 7 7
1 2 2 2 2 3 6 6 7 5 5 3 3 6 3 3 3 4 4 3 3 1 3 2 1 2 3 2 4 4 8 11 18 20 19 17 16 4 5 4 5 10 11 10 9
2 2 2 5 4 2 3 2 4 6 3 6 3 3 3 4 5 5 4 2 3 7 3 3 4 3 3 4 3 7 12 12 7 7 16 15 22 6 6 7 10 11 12 13 11
Wind_Direction
343 338 340 337 327 320 316 308 299 269 276 290 286 292 277 273 272 258 230 220 214 254 262 132 158 217 112 139 156 104 186 218 212 210 233 87 20 338 315 324 332 330 112 124 123
353 352 350 345 343 339 330 330 314 297 315 320 342 315 296 277 221 234 215 220 234 255 144 171 165 157 208 156 183 142 213 214 187 208 234 174 86 348 3 332 353 332 55 89 122
357 1 1 0 357 1 4 13 11 354 348 293 16 338 266 108 16 247 220 232 237 239 221 262 135 149 229 126 205 191 204 193 200 202 243 270 293 10 1 322 59 344 256 135 136
354 360 3 4 13 16 10 12 27 25 26 102 6 335 262 236 212 54 233 221 225 237 220 172 142 166 198 186 182 173 217 196 150 126 176 235 299 296 282 259 312 305 278 245 163
353 353 2 5 8 8 6 4 34 65 64 175 109 109 256 233 259 338 336 327 266 256 215 200 163 182 198 200 155 234 177 165 124 143 155 319 264 272 281 291 303 303 238 245 178
353 351 353 360 6 5 357 357 3 16 62 158 209 104 279 285 354 329 318 306 223 211 198 204 182 183 170 175 196 185 156 163 149 181 153 152 231 225 266 287 317 331 250 237 202
347 356 348 350 356 2 348 338 345 328 331 324 266 202 267 269 310 302 300 281 199 180 193 213 180 169 130 132 175 185 105 111 190 169 177 175 231 220 256 285 298 294 278 233 234
346 341 351 342 339 346 334 317 310 301 297 292 256 60 251 173 254 300 298 322 43 176 188 199 185 136 144 134 104 97 94 150 200 168 143 150 222 221 261 269 278 282 268 265 210
343 342 338 344 336 329 333 310 299 284 281 274 53 153 273 142 227 256 242 130 118 123 205 191 128 167 55 132 85 163 174 186 154 199 154 181 177 193 196 239 255 261 255 263 268
345 340 337 332 335 327 324 310 285 333 318 276 256 328 248 313 293 304 19 69 141 130 158 187 186 143 118 168 185 186 190 191 170 188 179 196 216 167 194 197 221 252 242 249 260
343 336 333 328 326 329 341 15 5 321 23 233 281 273 300 299 214 68 91 53 13 175 188 164 176 199 187 186 160 120 112 166 140 201 192 204 214 230 184 186 223 247 252 235 239
340 337 331 327 322 330 67 95 263 205 309 263 270 262 259 240 282 110 124 135 12 76 166 148 205 174 138 153 137 134 118 152 76 158 181 185 211 245 257 221 211 230 238 235 220
338 334 333 324 322 12 123 210 45 334 298 298 196 253 276 6 24 128 129 152 167 172 176 163 158 150 140 119 132 91 151 165 162 99 60 116 246 227 239 236 244 238 243 214 204
336 333 330 317 338 259 230 182 133 44 36 14 102 70 304 330 27 319 98 136 187 138 105 86 145 148 148 114 111 97 159 149 115 113 204 163 269 240 231 238 232 239 218 228 198
332 333 324 273 193 173 243 138 104 72 56 311 54 3 336 346 123 339 321 141 124 128 131 196 165 154 160 152 122 122 137 143 124 95 121 222 151 254 232 231 236 235 243 219 195
330 328 316 196 161 237 138 123 94 38 324 114 91 68 33 299 267 140 344 296 87 69 91 87 33 74 127 90 143 133 83 54 55 83 312 183 173 254 211 215 218 234 233 206 183
330 322 239 156 194 155 132 111 35 108 214 162 114 179 228 168 102 47 137 110 144 119 91 83 31 59 45 93 69 90 98 60 52 214 227 282 175 243 251 266 218 236 244 199 179
333 348 156 175 148 140 115 69 70 268 268 123 120 169 108 130 96 106 119 106 260 150 88 122 144 64 357 84 166 146 164 151 180 190 238 73 237 240 247 260 247 228 211 166 161
345 3 87 242 156 131 123 57 200 205 251 208 162 152 156 121 98 97 58 144 231 41 110 109 67 26 37 19 59 189 147 160 104 45 69 217 290 296 268 268 258 210 165 163 168
64 48 352 197 157 126 109 256 220 212 345 313 280 185 50 113 144 144 161 210 187 153 139 138 104 301 9 312 52 86 169 90 3 143 242 258 260 243 282 269 269 202 173 166 159
49 76 289 202 69 206 202 217 279 245 324 204 293 255 159 161 166 170 170 165 181 153 71 111 90 133 156 213 185 161 158 88 136 155 194 281 255 216 249 264 228 199 176 167 165
66 90 302 9 246 174 206 194 225 106 70 317 289 325 95 138 137 201 176 234 164 139 147 187 118 155 190 231 253 170 199 187 193 219 232 172 262 245 270 270 185 189 169 158 162
79 164 123 20 335 336 302 288 98 36 54 16 327 360 307 122 108 91 68 346 141 155 161 177 107 104 80 358 316 220 194 218 90 47 201 179 259 336 12 57 169 161 157 156 140
70 15 325 245 250 247 0 338 351 89 81 33 335 346 357 3 28 134 115 49 126 124 104 94 150 168 185 198 133 200 204 206 209 202 200 227 280 306 325 192 208 179 164 163 160
23 261 189 358 312 349 334 355 310 31 52 50 16 30 328 344 46 99 103 119 71 130 99 127 171 151 236 222 169 189 195 212 218 230 227 258 233 242 231 221 206 190 164 153 170
93 108 1 302 309 295 8 6 22 340 11 47 54 336 350 59 5 225 136 177 183 52 101 16 165 110 323 296 215 255 228 220 223 234 245 255 270 235 256 175 177 196 176 184 194
346 359 61 340 352 60 11 319 13 335 74 88 339 342 63 359 309 302 229 191 185 148 134 109 125 79 276 333 331 286 233 212 202 214 224 233 243 170 243 225 205 199 200 184 195